CAPE
4 0 0 0 0 0 0 0 0 0 0 0 0 0 0 0 4 2 58 216 643 868 907 796 1060 931 708 390 358 417 400 421 285 61 17 6 0 0 0 0 27 17 21 33 55 56 42 4 0
0 0 0 0 0 0 0 0 0 0 0 0 0 0 0 6 43 224 353 609 812 848 858 644 1063 877 342 115 71 67 115 133 168 67 21 6 1 0 0 0 11 10 8 6 7 4 0 0 0
0 0 0 0 0 0 0 0 0 0 0 0 0 0 0 0 0 222 390 796 894 892 746 699 1107 746 232 106 84 47 79 294 298 65 9 4 1 0 0 0 1 4 0 0 0 0 0 0 0
0 0 0 0 0 0 0 0 0 0 0 0 0 0 0 4 49 135 740 879 890 798 722 951 1099 727 490 308 92 37 187 208 43 64 10 1 6 0 0 0 0 0 0 0 0 0 0 0 0
0 0 0 0 0 0 0 0 0 0 0 0 0 0 0 57 39 813 909 859 759 794 791 904 1106 750 454 224 317 387 523 72 0 0 1 7 10 4 0 0 0 1 2 2 1 1 0 0 0
0 0 0 0 0 0 0 0 0 0 0 0 0 0 0 97 158 1018 1137 938 840 801 851 839 953 908 756 416 538 787 817 347 68 72 35 3 8 33 0 0 0 1 5 8 5 0 0 0 7
0 0 0 0 0 0 0 0 0 0 0 0 0 0 50 100 116 1072 1235 1260 1089 828 797 817 765 645 625 495 382 674 796 448 200 179 182 157 150 133 46 0 0 1 4 6 3 1 30 3 0
0 0 0 0 0 0 0 0 0 0 0 0 0 0 44 125 102 408 1336 1407 1005 872 813 879 749 530 401 271 311 487 498 304 346 373 257 96 91 213 270 53 30 4 38 51 67 80 0 0 0
0 0 0 0 0 0 0 0 0 0 0 0 0 10 4 157 108 412 985 1104 1118 1128 1065 908 820 478 369 209 182 336 485 377 367 215 14 66 103 179 113 11 48 190 129 117 52 24 0 0 0
0 0 0 0 0 0 0 0 0 0 0 0 0 34 294 328 322 147 1231 1223 1230 1207 1005 937 711 498 366 219 175 139 168 121 126 77 0 137 197 181 35 0 51 309 246 41 4 0 0 0 0
0 0 0 0 0 0 0 0 0 0 0 0 0 183 299 343 461 255 611 1308 1339 1251 1103 839 694 595 469 345 154 97 99 77 67 63 1 95 157 107 39 31 26 27 5 0 0 0 0 0 0
0 0 0 0 0 0 0 0 0 0 0 0 0 0 14 318 442 445 356 739 1128 1302 1135 916 813 741 600 548 396 108 68 74 75 57 23 0 137 96 74 27 5 0 0 0 0 0 0 0 0
0 0 0 0 0 0 0 0 0 0 0 0 0 0 0 0 0 409 464 426 512 935 1176 1091 1001 970 897 800 507 161 99 38 13 32 18 13 3 68 129 24 1 0 0 0 0 0 0 0 0
0 0 0 0 0 0 0 0 0 0 0 0 0 0 0 0 0 0 290 457 484 557 771 1152 1149 1131 1122 994 834 711 292 77 4 0 0 6 4 29 144 19 0 0 0 0 0 0 0 0 0
0 0 0 0 0 0 0 0 0 0 0 0 0 0 0 0 0 0 0 0 10 147 601 747 1247 1289 1281 1199 1013 874 791 316 139 52 0 0 5 28 117 0 1 25 0 0 0 0 0 0 0
1 0 0 0 0 0 0 0 0 0 0 0 0 0 0 0 0 0 0 0 0 0 0 429 792 1305 1391 1390 1192 1018 934 725 409 319 163 177 89 4 0 0 10 48 18 0 0 0 0 0 0
0 0 0 0 0 0 0 0 0 0 0 0 0 0 0 0 0 0 0 0 0 0 0 0 526 1022 1188 1279 1287 1093 1097 946 578 533 404 283 261 30 0 2 39 41 56 0 0 0 0 0 0
0 0 0 0 0 0 0 0 0 0 0 0 0 0 0 0 0 0 0 0 0 0 0 0 250 804 1016 1028 1129 1115 1168 1095 738 825 555 514 379 192 43 18 54 72 75 2 0 0 0 0 0
1 0 0 0 0 0 0 0 0 0 0 0 0 0 0 0 0 0 0 0 0 0 0 0 2 633 1058 1029 1012 1067 1138 1104 776 919 708 688 547 388 233 48 49 74 58 0 0 0 0 0 0
10 0 0 0 0 0 0 0 0 0 0 0 0 0 0 0 0 0 0 0 0 0 0 0 0 137 980 1135 1106 1039 1185 1092 990 959 854 817 555 455 316 127 84 115 25 0 0 0 0 0 0
0 0 0 0 0 0 0 0 0 0 0 0 0 0 0 0 0 0 0 0 0 0 0 0 0 0 344 1121 1148 1091 1023 869 932 942 906 747 599 535 405 191 204 203 32 3 0 0 0 0 0
0 0 0 0 0 0 0 0 0 0 0 0 0 0 0 0 0 0 0 0 0 0 0 0 0 0 0 882 1122 1016 691 628 721 945 754 687 629 506 442 358 303 311 139 30 4 0 0 0 0
0 0 0 0 0 0 0 0 0 0 0 0 0 0 0 0 0 0 0 0 0 0 0 0 0 0 0 7 791 1055 841 659 556 781 847 641 626 480 478 387 358 419 233 85 105 23 9 3 7
0 0 0 0 0 0 0 0 0 0 0 0 0 0 0 0 0 0 0 0 0 0 0 0 0 0 0 0 9 576 757 737 673 838 837 691 593 502 432 475 391 398 318 200 273 211 48 13 29
0 0 0 0 0 0 0 0 0 0 0 0 0 0 0 0 0 0 0 0 0 0 0 0 0 0 0 0 0 12 451 748 750 826 812 613 505 453 401 406 385 269 237 208 194 143 61 13 18
0 0 0 0 0 0 0 0 0 0 0 0 0 0 0 0 0 0 0 0 0 0 0 0 0 0 0 0 0 0 106 419 636 556 610 583 483 290 230 247 246 263 267 284 236 113 16 29 40
0 0 0 0 0 0 0 0 0 0 0 0 0 0 0 0 0 0 0 0 0 0 0 0 0 0 0 0 0 0 1 39 184 413 474 408 178 145 151 207 187 123 255 270 205 156 11 13 3
0 0 0 0 0 0 0 0 0 0 0 0 0 0 0 0 0 0 0 0 0 0 0 0 0 0 0 0 12 11 9 2 60 202 370 332 180 161 146 146 91 78 82 357 175 185 61 9 12
0 0 0 0 0 0 0 0 0 0 0 0 0 0 0 0 0 0 0 0 0 0 0 0 0 2 5 1 17 25 16 88 271 290 194 195 225 167 184 136 113 228 27 203 198 145 0 1 5
0 0 0 0 0 0 0 0 0 0 0 0 0 0 0 0 0 0 0 0 0 0 0 0 9 54 54 64 138 223 240 413 550 295 347 344 305 193 233 131 62 238 125 90 119 0 0 3 7
CIN
-18 -0 -0 -0 -0 -0 -0 -0 -0 -0 -0 -0 -0 -0 -0 -0 -21 -10 -307 -372 -274 -180 -150 -146 -114 -123 -143 -192 -182 -150 -126 -102 -119 -180 -0 -0 -0 -0 -0 -0 -0 -0 -1 -1 -0 -3 -15 -12 -0
-0 -0 -0 -0 -0 -0 -0 -0 -0 -0 -0 -0 -0 -0 -0 -46 -187 -348 -321 -273 -251 -195 -160 -179 -119 -124 -200 -290 -337 -316 -262 -187 -152 -169 -0 -0 -0 -0 -0 -0 -0 -0 -0 -13 -26 -16 -0 -0 -0
-0 -0 -0 -0 -0 -0 -0 -0 -0 -0 -0 -0 -0 -0 -0 -0 -0 -312 -347 -259 -223 -196 -184 -170 -106 -138 -247 -303 -314 -353 -273 -157 -137 -184 -0 -0 -0 -0 -0 -0 -0 -0 -0 -0 -0 -0 -0 -0 -0
-0 -0 -0 -0 -0 -0 -0 -0 -0 -0 -0 -0 -0 -0 -0 -17 -182 -176 -320 -253 -235 -211 -191 -123 -102 -137 -168 -214 -303 -347 -208 -179 -227 -183 -5 -0 -0 -0 -0 -0 -0 -0 -0 -0 -0 -0 -0 -0 -0
-0 -0 -0 -0 -0 -0 -0 -0 -0 -0 -0 -0 -0 -0 -0 -133 -105 -278 -264 -267 -265 -203 -176 -127 -96 -126 -174 -253 -210 -184 -143 -240 -0 -0 -0 -0 -0 -0 -0 -0 -0 -0 -0 -0 -0 -0 -0 -0 -0
-0 -0 -0 -0 -0 -0 -0 -0 -0 -0 -0 -0 -0 -0 -0 -105 -76 -195 -192 -174 -152 -223 -155 -128 -103 -98 -114 -178 -164 -122 -109 -175 -244 -211 -229 -0 -52 -186 -0 -0 -0 -0 -0 -0 -0 -0 -0 -0 -5
-0 -0 -0 -0 -0 -0 -0 -0 -0 -0 -0 -0 -0 -0 -100 -115 -112 -149 -134 -99 -100 -195 -155 -118 -114 -128 -130 -150 -192 -132 -107 -151 -201 -188 -162 -148 -129 -117 -150 -0 -0 -0 -0 -0 -0 -0 -57 -1 -0
-0 -0 -0 -0 -0 -0 -0 -0 -0 -0 -0 -0 -0 -0 -73 -112 -95 -91 -70 -64 -91 -87 -148 -122 -123 -158 -190 -236 -215 -162 -156 -190 -162 -137 -150 -187 -177 -115 -75 -145 -154 -6 -112 -84 -58 -53 -0 -0 -0
-0 -0 -0 -0 -0 -0 -0 -0 -0 -0 -0 -0 -0 -77 -26 -81 -89 -118 -108 -60 -83 -64 -67 -91 -91 -176 -215 -277 -283 -199 -165 -188 -178 -211 -235 -255 -196 -144 -151 -164 -151 -78 -79 -72 -97 -133 -0 -0 -0
-0 -0 -0 -0 -0 -0 -0 -0 -0 -0 -0 -0 -0 -86 -68 -71 -66 -75 -74 -67 -56 -60 -86 -76 -108 -168 -229 -292 -304 -312 -286 -307 -289 -313 -0 -238 -181 -178 -243 -0 -169 -73 -71 -137 -75 -0 -0 -0 -0
-0 -0 -0 -0 -0 -0 -0 -0 -0 -0 -0 -0 -3 -60 -53 -46 -47 -54 -89 -67 -88 -51 -46 -83 -146 -170 -187 -205 -324 -371 -367 -372 -359 -356 -28 -300 -233 -253 -293 -278 -230 -198 -25 -0 -0 -0 -0 -0 -0
-0 -0 -0 -0 -0 -0 -0 -0 -0 -0 -0 -0 -0 -0 -25 -13 -21 -40 -32 -67 -77 -78 -76 -63 -121 -82 -160 -150 -186 -329 -422 -403 -379 -373 -391 -0 -278 -286 -286 -294 -311 -0 -0 -0 -0 -0 -0 -0 -0
-0 -0 -0 -0 -0 -0 -0 -0 -0 -0 -0 -0 -0 -0 -0 -0 -0 -22 -19 -20 -50 -65 -77 -69 -53 -71 -88 -125 -149 -236 -378 -431 -443 -388 -393 -422 -295 -314 -257 -305 -228 -0 -0 -0 -0 -0 -0 -0 -0
-0 -0 -0 -0 -0 -0 -0 -0 -0 -0 -0 -0 -0 -0 -0 -0 -0 -0 -17 -15 -14 -30 -44 -92 -52 -63 -74 -85 -93 -91 -147 -320 -279 -0 -0 -460 -272 -334 -259 -304 -0 -0 -0 -0 -0 -0 -0 -0 -0
-0 -0 -0 -0 -0 -0 -0 -0 -0 -0 -0 -0 -0 -0 -0 -0 -0 -0 -0 -0 -2 -22 -15 -24 -92 -61 -66 -66 -80 -85 -84 -144 -216 -223 -0 -7 -475 -383 -265 -0 -160 -227 -0 -0 -0 -0 -0 -0 -0
-1 -0 -0 -0 -0 -0 -0 -0 -0 -0 -0 -0 -0 -0 -0 -0 -0 -0 -0 -0 -0 -0 -0 -31 -38 -74 -67 -65 -66 -73 -77 -89 -169 -140 -170 -193 -211 -408 -1 -0 -298 -196 -229 -0 -0 -0 -0 -0 -0
-0 -0 -0 -0 -0 -0 -0 -0 -0 -0 -0 -0 -0 -0 -0 -0 -0 -0 -0 -0 -0 -0 -0 -0 -46 -64 -77 -70 -47 -55 -55 -62 -139 -116 -122 -147 -153 -192 -0 -186 -208 -188 -154 -0 -0 -0 -0 -0 -0
-0 -0 -0 -0 -0 -0 -0 -0 -0 -0 -0 -0 -0 -0 -0 -0 -0 -0 -0 -0 -0 -0 -0 -0 -136 -40 -41 -39 -37 -34 -35 -35 -97 -93 -107 -106 -114 -126 -141 -202 -156 -144 -117 -184 -0 -0 -0 -0 -0
-0 -0 -0 -0 -0 -0 -0 -0 -0 -0 -0 -0 -0 -0 -0 -0 -0 -0 -0 -0 -0 -0 -0 -0 -46 -75 -41 -54 -29 -25 -33 -22 -69 -52 -72 -75 -71 -77 -81 -115 -144 -95 -72 -0 -0 -0 -0 -0 -0
-0 -0 -0 -0 -0 -0 -0 -0 -0 -0 -0 -0 -0 -0 -0 -0 -0 -0 -0 -0 -0 -0 -0 -0 -0 -165 -70 -79 -74 -71 -59 -33 -39 -34 -26 -28 -65 -72 -71 -79 -88 -49 -87 -0 -0 -0 -0 -0 -0
-0 -0 -0 -0 -0 -0 -0 -0 -0 -0 -0 -0 -0 -0 -0 -0 -0 -0 -0 -0 -0 -0 -0 -0 -0 -0 -119 -56 -64 -50 -54 -52 -36 -24 -10 -15 -56 -58 -58 -50 -40 -34 -42 -55 -0 -0 -0 -0 -0
-0 -0 -0 -0 -0 -0 -0 -0 -0 -0 -0 -0 -0 -0 -0 -0 -0 -0 -0 -0 -0 -0 -0 -0 -0 -0 -55 -75 -56 -48 -44 -39 -31 -33 -39 -18 -47 -59 -58 -41 -39 -19 -15 -20 -4 -0 -0 -0 -0
-0 -0 -0 -0 -0 -0 -0 -0 -0 -0 -0 -0 -0 -0 -0 -0 -0 -0 -0 -0 -0 -0 -0 -0 -0 -0 -0 -8 -37 -37 -29 -35 -47 -46 -45 -41 -36 -51 -47 -44 -43 -24 -11 -5 -0 -3 -0 -0 -2
-0 -0 -0 -0 -0 -0 -0 -0 -0 -0 -0 -0 -0 -0 -0 -0 -0 -0 -0 -0 -0 -0 -0 -0 -0 -0 -0 -0 -42 -66 -46 -43 -57 -52 -44 -39 -38 -42 -48 -42 -43 -31 -4 -2 -0 -0 -0 -1 -0
-0 -0 -0 -0 -0 -0 -0 -0 -0 -0 -0 -0 -0 -0 -0 -0 -0 -0 -0 -0 -0 -0 -0 -0 -0 -0 -0 -0 -0 -161 -112 -63 -41 -39 -49 -49 -41 -50 -55 -53 -51 -39 -11 -2 -0 -0 -2 -4 -1
-0 -0 -0 -0 -0 -0 -0 -0 -0 -0 -0 -0 -0 -0 -0 -0 -0 -0 -0 -0 -0 -0 -0 -0 -0 -0 -0 -0 -0 -0 -228 -76 -35 -35 -39 -33 -43 -55 -60 -55 -48 -27 -2 -0 -0 -0 -4 -0 -0
-0 -0 -0 -0 -0 -0 -0 -0 -0 -0 -0 -0 -0 -0 -0 -0 -0 -0 -0 -0 -0 -0 -0 -0 -0 -0 -0 -0 -0 -0 -38 -225 -109 -40 -37 -23 -34 -62 -47 -49 -30 -18 -3 -1 -0 -0 -13 -0 -0
-0 -0 -0 -0 -0 -0 -0 -0 -0 -0 -0 -0 -0 -0 -0 -0 -0 -0 -0 -0 -0 -0 -0 -0 -0 -0 -0 -0 -280 -193 -184 -71 -92 -56 -41 -29 -25 -20 -35 -34 -23 -10 -11 -0 -0 -0 -0 -0 -0
-0 -0 -0 -0 -0 -0 -0 -0 -0 -0 -0 -0 -0 -0 -0 -0 -0 -0 -0 -0 -0 -0 -0 -0 -0 -47 -55 -10 -181 -186 -218 -102 -46 -40 -35 -25 -24 -27 -17 -6 -3 -0 -20 -0 -0 -0 -0 -0 -0
-0 -0 -0 -0 -0 -0 -0 -0 -0 -0 -0 -0 -0 -0 -0 -0 -0 -0 -0 -0 -4 -0 -0 -0 -163 -90 -77 -224 -143 -93 -43 -18 -16 -39 -16 -19 -8 -1 -0 -0 -6 -0 -1 -0 -8 -0 -0 -0 -0
Wind_Speed
nan nan nan nan nan nan nan nan nan nan nan nan nan nan nan nan nan nan nan 25 32 30 26 27 31 31 32 34 34 34 34 32 33 nan nan nan nan nan nan nan nan nan nan nan nan nan nan nan nan
nan nan nan nan nan nan nan nan nan nan nan nan nan nan nan nan nan 26 26 24 33 28 25 25 32 32 33 33 nan nan 34 33 33 nan nan nan nan nan nan nan nan nan nan nan nan nan nan nan nan
nan nan nan nan nan nan nan nan nan nan nan nan nan nan nan nan nan 22 23 28 30 28 25 25 30 31 34 35 nan nan nan 34 37 nan nan nan nan nan nan nan nan nan nan nan nan nan nan nan nan
nan nan nan nan nan nan nan nan nan nan nan nan nan nan nan nan nan 22 31 29 30 27 26 26 29 31 32 34 nan nan 34 37 nan nan nan nan nan nan nan nan nan nan nan nan nan nan nan nan nan
nan nan nan nan nan nan nan nan nan nan nan nan nan nan nan nan nan 35 34 34 32 28 28 28 30 30 31 32 32 33 37 nan nan nan nan nan nan nan nan nan nan nan nan nan nan nan nan nan nan
nan nan nan nan nan nan nan nan nan nan nan nan nan nan nan nan 34 30 30 31 33 32 30 29 31 31 32 31 32 31 34 36 nan nan nan nan nan nan nan nan nan nan nan nan nan nan nan nan nan
nan nan nan nan nan nan nan nan nan nan nan nan nan nan nan 27 28 32 30 31 33 34 30 28 28 29 31 32 31 30 31 31 32 31 31 31 29 30 nan nan nan nan nan nan nan nan nan nan nan
nan nan nan nan nan nan nan nan nan nan nan nan nan nan nan 23 28 33 34 33 32 31 32 31 30 29 28 27 29 28 33 31 30 29 28 nan nan 26 29 nan nan nan nan nan nan nan nan nan nan
nan nan nan nan nan nan nan nan nan nan nan nan nan nan nan 33 32 33 32 32 33 30 32 32 31 31 30 28 27 29 31 33 32 30 nan nan 23 25 26 nan nan 25 25 26 nan nan nan nan nan
nan nan nan nan nan nan nan nan nan nan nan nan nan nan 36 35 29 31 27 28 29 29 30 32 33 33 32 30 30 29 29 29 30 nan nan 25 25 26 nan nan nan 25 25 nan nan nan nan nan nan
nan nan nan nan nan nan nan nan nan nan nan nan nan 31 34 33 28 27 25 25 26 27 28 31 32 33 33 33 33 nan nan nan nan nan nan nan 27 25 nan nan nan nan nan nan nan nan nan nan nan
nan nan nan nan nan nan nan nan nan nan nan nan nan nan nan 25 23 20 24 23 25 25 25 28 29 30 30 33 34 35 nan nan nan nan nan nan 29 nan nan nan nan nan nan nan nan nan nan nan nan
nan nan nan nan nan nan nan nan nan nan nan nan nan nan nan nan nan 23 20 23 25 24 24 25 27 27 29 31 32 34 nan nan nan nan nan nan nan nan 29 nan nan nan nan nan nan nan nan nan nan
nan nan nan nan nan nan nan nan nan nan nan nan nan nan nan nan nan nan 25 21 27 26 27 29 27 27 30 30 33 34 33 nan nan nan nan nan nan nan 31 nan nan nan nan nan nan nan nan nan nan
nan nan nan nan nan nan nan nan nan nan nan nan nan nan nan nan nan nan nan nan nan 29 26 30 29 30 31 29 30 32 33 31 29 nan nan nan nan nan 33 nan nan nan nan nan nan nan nan nan nan
nan nan nan nan nan nan nan nan nan nan nan nan nan nan nan nan nan nan nan nan nan nan nan 28 27 30 31 30 30 29 29 30 28 26 27 29 nan nan nan nan nan nan nan nan nan nan nan nan nan
nan nan nan nan nan nan nan nan nan nan nan nan nan nan nan nan nan nan nan nan nan nan nan nan 29 27 25 28 32 29 29 27 27 26 24 25 30 nan nan nan nan nan nan nan nan nan nan nan nan
nan nan nan nan nan nan nan nan nan nan nan nan nan nan nan nan nan nan nan nan nan nan nan nan 31 27 24 29 33 33 32 28 28 24 23 27 30 35 nan nan nan nan nan nan nan nan nan nan nan
nan nan nan nan nan nan nan nan nan nan nan nan nan nan nan nan nan nan nan nan nan nan nan nan nan 29 31 31 34 33 31 32 30 26 26 31 31 34 36 nan nan nan nan nan nan nan nan nan nan
nan nan nan nan nan nan nan nan nan nan nan nan nan nan nan nan nan nan nan nan nan nan nan nan nan 30 29 33 33 35 36 37 35 31 29 30 34 33 36 37 nan 36 nan nan nan nan nan nan nan
nan nan nan nan nan nan nan nan nan nan nan nan nan nan nan nan nan nan nan nan nan nan nan nan nan nan 33 33 42 45 46 46 41 37 32 30 35 37 38 37 36 37 nan nan nan nan nan nan nan
nan nan nan nan nan nan nan nan nan nan nan nan nan nan nan nan nan nan nan nan nan nan nan nan nan nan nan 41 42 40 38 40 40 41 42 40 37 40 44 42 38 40 38 nan nan nan nan nan nan
nan nan nan nan nan nan nan nan nan nan nan nan nan nan nan nan nan nan nan nan nan nan nan nan nan nan nan nan 42 41 39 40 48 49 49 48 44 41 42 43 42 43 42 nan 42 nan nan nan nan
nan nan nan nan nan nan nan nan nan nan nan nan nan nan nan nan nan nan nan nan nan nan nan nan nan nan nan nan nan 45 41 48 47 45 48 49 50 49 47 46 44 44 48 46 44 43 nan nan nan
nan nan nan nan nan nan nan nan nan nan nan nan nan nan nan nan nan nan nan nan nan nan nan nan nan nan nan nan nan nan 51 49 46 45 43 49 51 50 50 50 51 48 51 51 49 45 nan nan nan
nan nan nan nan nan nan nan nan nan nan nan nan nan nan nan nan nan nan nan nan nan nan nan nan nan nan nan nan nan nan 56 55 54 52 49 49 52 52 51 53 53 53 54 52 51 48 nan nan nan
nan nan nan nan nan nan nan nan nan nan nan nan nan nan nan nan nan nan nan nan nan nan nan nan nan nan nan nan nan nan nan nan 65 62 56 56 60 54 53 54 53 53 56 55 52 50 nan nan nan
nan nan nan nan nan nan nan nan nan nan nan nan nan nan nan nan nan nan nan nan nan nan nan nan nan nan nan nan nan nan nan nan nan 72 64 61 63 60 54 52 nan nan nan 55 53 51 nan nan nan
nan nan nan nan nan nan nan nan nan nan nan nan nan nan nan nan nan nan nan nan nan nan nan nan nan nan nan nan nan nan nan nan 64 70 67 65 61 58 54 52 54 53 nan 55 53 51 nan nan nan
nan nan nan nan nan nan nan nan nan nan nan nan nan nan nan nan nan nan nan nan nan nan nan nan nan nan nan nan 48 46 53 55 58 64 67 66 61 56 57 56 nan 57 56 nan 54 nan nan nan nan
Wind_Direction
nan nan nan nan nan nan nan nan nan nan nan nan nan nan nan nan nan nan nan 275 284 287 292 291 295 295 295 293 291 289 288 287 285 nan nan nan nan nan nan nan nan nan nan nan nan nan nan nan nan
nan nan nan nan nan nan nan nan nan nan nan nan nan nan nan nan nan 253 254 280 292 292 291 292 293 295 295 295 nan nan 292 292 290 nan nan nan nan nan nan nan nan nan nan nan nan nan nan nan nan
nan nan nan nan nan nan nan nan nan nan nan nan nan nan nan nan nan 268 265 288 286 288 288 290 297 296 294 292 nan nan nan 294 292 nan nan nan nan nan nan nan nan nan nan nan nan nan nan nan nan
nan nan nan nan nan nan nan nan nan nan nan nan nan nan nan nan nan 261 281 282 280 283 284 293 297 294 293 293 nan nan 297 295 nan nan nan nan nan nan nan nan nan nan nan nan nan nan nan nan nan
nan nan nan nan nan nan nan nan nan nan nan nan nan nan nan nan nan 269 276 278 281 277 279 286 294 297 297 294 296 298 298 nan nan nan nan nan nan nan nan nan nan nan nan nan nan nan nan nan nan
nan nan nan nan nan nan nan nan nan nan nan nan nan nan nan nan 259 263 269 274 279 277 278 285 298 299 299 300 303 305 306 305 nan nan nan nan nan nan nan nan nan nan nan nan nan nan nan nan nan
nan nan nan nan nan nan nan nan nan nan nan nan nan nan nan 250 262 258 261 261 269 278 280 280 283 290 298 299 303 308 308 308 309 309 306 300 297 299 nan nan nan nan nan nan nan nan nan nan nan
nan nan nan nan nan nan nan nan nan nan nan nan nan nan nan 261 267 260 259 260 267 274 277 277 278 280 281 285 297 300 304 303 305 303 299 nan nan 299 301 nan nan nan nan nan nan nan nan nan nan
nan nan nan nan nan nan nan nan nan nan nan nan nan nan nan 265 261 257 257 256 260 262 268 272 276 275 273 275 280 288 291 293 297 298 nan nan 291 296 295 nan nan 293 289 284 nan nan nan nan nan
nan nan nan nan nan nan nan nan nan nan nan nan nan nan 259 263 259 264 269 266 264 265 265 266 270 274 275 275 274 276 280 280 283 nan nan 292 289 287 nan nan nan 296 295 nan nan nan nan nan nan
nan nan nan nan nan nan nan nan nan nan nan nan nan 264 258 258 266 269 275 284 286 277 274 275 272 272 277 276 274 nan nan nan nan nan nan nan 290 288 nan nan nan nan nan nan nan nan nan nan nan
nan nan nan nan nan nan nan nan nan nan nan nan nan nan nan 258 257 264 283 278 283 288 287 286 284 280 278 272 274 275 nan nan nan nan nan nan 285 nan nan nan nan nan nan nan nan nan nan nan nan
nan nan nan nan nan nan nan nan nan nan nan nan nan nan nan nan nan 258 248 258 266 282 286 289 286 287 285 280 277 278 nan nan nan nan nan nan nan nan 289 nan nan nan nan nan nan nan nan nan nan
nan nan nan nan nan nan nan nan nan nan nan nan nan nan nan nan nan nan 256 250 257 269 277 284 287 286 284 283 285 283 283 nan nan nan nan nan nan nan 288 nan nan nan nan nan nan nan nan nan nan
nan nan nan nan nan nan nan nan nan nan nan nan nan nan nan nan nan nan nan nan nan 259 271 283 290 287 286 287 282 282 283 284 285 nan nan nan nan nan 287 nan nan nan nan nan nan nan nan nan nan
nan nan nan nan nan nan nan nan nan nan nan nan nan nan nan nan nan nan nan nan nan nan nan 274 276 287 288 291 283 277 279 279 280 285 288 289 nan nan nan nan nan nan nan nan nan nan nan nan nan
nan nan nan nan nan nan nan nan nan nan nan nan nan nan nan nan nan nan nan nan nan nan nan nan 275 280 281 279 276 275 277 276 276 282 289 293 284 nan nan nan nan nan nan nan nan nan nan nan nan
nan nan nan nan nan nan nan nan nan nan nan nan nan nan nan nan nan nan nan nan nan nan nan nan 266 275 273 260 264 261 261 267 273 280 285 286 286 281 nan nan nan nan nan nan nan nan nan nan nan
nan nan nan nan nan nan nan nan nan nan nan nan nan nan nan nan nan nan nan nan nan nan nan nan nan 274 264 257 262 264 272 263 262 272 281 285 283 287 282 nan nan nan nan nan nan nan nan nan nan
nan nan nan nan nan nan nan nan nan nan nan nan nan nan nan nan nan nan nan nan nan nan nan nan nan 267 269 259 258 253 263 263 266 267 270 283 286 284 281 281 nan 281 nan nan nan nan nan nan nan
nan nan nan nan nan nan nan nan nan nan nan nan nan nan nan nan nan nan nan nan nan nan nan nan nan nan 262 264 250 247 247 251 259 262 269 275 279 278 280 285 287 283 nan nan nan nan nan nan nan
nan nan nan nan nan nan nan nan nan nan nan nan nan nan nan nan nan nan nan nan nan nan nan nan nan nan nan 259 257 259 260 260 264 269 265 262 267 276 281 283 284 283 278 nan nan nan nan nan nan
nan nan nan nan nan nan nan nan nan nan nan nan nan nan nan nan nan nan nan nan nan nan nan nan nan nan nan nan 263 260 260 262 256 259 270 271 268 268 274 280 283 285 280 nan 284 nan nan nan nan
nan nan nan nan nan nan nan nan nan nan nan nan nan nan nan nan nan nan nan nan nan nan nan nan nan nan nan nan nan 265 263 259 260 261 266 269 267 265 267 273 278 282 282 283 281 280 nan nan nan
nan nan nan nan nan nan nan nan nan nan nan nan nan nan nan nan nan nan nan nan nan nan nan nan nan nan nan nan nan nan 257 261 265 271 269 274 272 268 272 272 273 276 278 279 279 280 nan nan nan
nan nan nan nan nan nan nan nan nan nan nan nan nan nan nan nan nan nan nan nan nan nan nan nan nan nan nan nan nan nan 256 252 255 263 264 268 271 271 270 271 270 272 274 280 280 278 nan nan nan
nan nan nan nan nan nan nan nan nan nan nan nan nan nan nan nan nan nan nan nan nan nan nan nan nan nan nan nan nan nan nan nan 258 261 260 262 263 263 267 272 273 274 275 279 282 281 nan nan nan
nan nan nan nan nan nan nan nan nan nan nan nan nan nan nan nan nan nan nan nan nan nan nan nan nan nan nan nan nan nan nan nan nan 256 259 260 260 265 268 272 nan nan nan 277 277 277 nan nan nan
nan nan nan nan nan nan nan nan nan nan nan nan nan nan nan nan nan nan nan nan nan nan nan nan nan nan nan nan nan nan nan nan 256 252 253 254 257 262 268 269 271 273 nan 274 277 279 nan nan nan
nan nan nan nan nan nan nan nan nan nan nan nan nan nan nan nan nan nan nan nan nan nan nan nan nan nan nan nan 247 252 253 259 253 253 251 251 255 259 265 265 nan 267 268 nan 274 nan nan nan nan